CW0003 Weather Reports


Display with metric or nautical units.
time (UTC)temp
F
wind
direction
speed
MPH
gust
MPH
rain 1hr
in
rain 24hr
in
rain mn
in
humidity
%
barometer
mb
20220518161513 67 250 3.0 14.0 0.00 0.00 0.00 41 1010.2
20220518160017 67 207 5.0 15.0 0.00 0.00 0.00 37 1010.6
20220518154507 67 211 5.0 16.0 0.00 0.00 0.00 44 1010.5
20220518153007 65 222 7.0 16.0 0.00 0.00 0.00 36 1010.8
20220518151602 66 263 6.0 18.0 0.00 0.00 0.00 37 1010.7
20220518150054 65 273 4.0 15.0 0.00 0.00 0.00 41 1010.9
20220518144550 64 360 7.0 15.0 0.00 0.00 0.00 39 1010.9
20220518143106 64 212 4.0 14.0 0.00 0.00 0.00 43 1011.0
20220518141542 63 225 5.0 13.0 0.00 0.00 0.00 44 1010.8
20220518140047 62 218 3.0 13.0 0.00 0.00 0.00 43 1010.3
20220518134545 62 209 1.0 9.0 0.00 0.00 0.00 44 1010.3
20220518133028 61 227 8.0 17.0 0.00 0.00 0.00 44 1010.1
20220518131542 60 360 5.0 14.0 0.00 0.00 0.00 50 1010.2
20220518130019 59 227 5.0 14.0 0.00 0.00 0.00 48 1010.1
20220518124518 59 251 2.0 13.0 0.00 0.00 0.00 51 1010.0
20220518123014 58 221 3.0 14.0 0.00 0.00 0.00 53 1009.8
20220518121502 58 254 2.0 10.0 0.00 0.00 0.00 59 1010.1
20220518120057 57 202 7.0 17.0 0.00 0.00 0.00 62 1010.0
20220518114553 56 211 4.0 16.0 0.00 0.00 0.00 66 1010.2
20220518113050 56 235 0.0 9.0 0.00 0.00 0.00 69 1009.9
20220518111551 54 220 1.0 12.0 0.00 0.00 0.00 70 1009.9
20220518110046 53 207 3.0 5.0 0.00 0.00 0.00 72 1009.7
20220518104536 52 0.0 0.0 0.00 0.00 0.00 77 1009.5
20220518103028 50 0.0 0.0 0.00 0.00 0.00 81 1009.4
20220518101522 49 0.0 0.0 0.00 0.00 0.00 77 1009.5
20220518100015 48 0.0 0.0 0.00 0.00 0.00 82 1009.5
20220518094513 48 0.0 0.0 0.00 0.00 0.00 81 1009.3
20220518093100 48 0.0 0.0 0.00 0.00 0.00 86 1009.0
20220518091557 47 0.0 0.0 0.00 0.00 0.00 87 1009.0
20220518090104 48 0.0 0.0 0.00 0.00 0.00 87 1008.8
20220518084540 48 0.0 0.0 0.00 0.00 0.00 85 1008.8
20220518083039 49 0.0 0.0 0.00 0.00 0.00 84 1008.9
20220518081526 49 0.0 0.0 0.00 0.00 0.00 83 1008.5
20220518080026 50 0.0 0.0 0.00 0.00 0.00 83 1008.4
20220518074529 50 0.0 0.0 0.00 0.00 0.00 82 1007.9
20220518073007 51 0.0 0.0 0.00 0.00 0.00 81 1007.9
20220518071604 51 0.0 0.0 0.00 0.00 0.00 80 1007.7
20220518070101 52 0.0 0.0 0.00 0.00 0.00 78 1007.7
20220518064548 52 0.0 0.0 0.00 0.00 0.00 77 1007.6
20220518063041 53 0.0 0.0 0.00 0.00 0.00 77 1007.5
20220518061538 53 0.0 0.0 0.00 0.00 0.00 75 1007.4
20220518060028 53 0.0 0.0 0.00 0.00 0.00 76 1007.6
20220518054538 53 0.0 0.0 0.00 0.00 0.00 75 1007.8
20220518053020 54 0.0 0.0 0.00 0.00 0.00 73 1007.8
20220518051515 55 0.0 0.0 0.00 0.00 0.00 73 1007.7
20220518050003 55 0.0 0.0 0.00 0.00 0.00 72 1007.7
20220518044555 55 0.0 0.0 0.00 0.00 0.00 71 1007.6
20220518043049 55 0.0 0.0 0.00 0.00 0.00 71 1007.4
20220518041547 56 0.0 0.0 0.00 0.00 0.00 69 1007.5
20220518040037 56 0.0 0.0 0.00 0.00 0.00 68 1007.3
20220518034529 57 0.0 0.0 0.00 0.00 0.00 66 1006.9
20220518033022 57 0.0 0.0 0.00 0.00 0.00 65 1006.9
20220518031518 57 0.0 0.0 0.00 0.00 0.00 65 1007.0
20220518030020 58 0.0 0.0 0.00 0.00 0.00 62 1006.8
20220518024502 58 0.0 0.0 0.00 0.00 0.00 61 1007.0
20220518023057 58 0.0 0.0 0.00 0.00 0.00 61 1007.0
20220518021550 58 0.0 0.0 0.00 0.00 0.00 62 1007.1
20220518020048 58 0.0 0.0 0.00 0.00 0.00 60 1007.1
20220518014544 59 0.0 0.0 0.00 0.03 0.00 61 1006.9
20220518013034 59 0.0 0.0 0.00 0.03 0.00 59 1006.7
20220518011525 60 0.0 0.0 0.00 0.03 0.00 57 1006.3
20220518010018 61 0.0 0.0 0.00 0.03 0.00 57 1006.3
20220518004512 61 0.0 0.0 0.00 0.05 0.00 57 1006.1
20220518003005 62 0.0 0.0 0.00 0.05 0.00 54 1006.0
20220518001600 62 0.0 0.0 0.00 0.05 0.00 53 1005.8
20220518000052 63 0.0 0.0 0.00 0.05 0.00 55 1005.7
20220517234546 63 0.0 0.0 0.00 0.05 0.00 52 1005.4
20220517233039 64 0.0 0.0 0.00 0.05 0.00 51 1005.0
20220517231547 65 209 3.0 16.0 0.00 0.05 0.00 49 1004.7
20220517230037 65 220 1.0 14.0 0.00 0.05 0.00 46 1004.5
20220517224516 66 155 3.0 15.0 0.00 0.05 0.00 49 1004.0
20220517223004 67 223 2.0 16.0 0.00 0.05 0.00 45 1003.7
20220517221559 68 225 0.0 11.0 0.00 0.05 0.00 46 1003.6
20220517220056 68 215 4.0 15.0 0.00 0.05 0.00 46 1003.4
20220517214620 68 268 6.0 14.0 0.00 0.05 0.00 44 1003.1
20220517213049 69 230 3.0 14.0 0.00 0.05 0.00 45 1003.0
20220517211546 69 142 2.0 20.0 0.00 0.05 0.00 41 1003.0
20220517210044 69 238 2.0 22.0 0.00 0.05 0.00 40 1002.4
20220517204541 69 360 10.0 22.0 0.00 0.13 0.00 42 1002.6
20220517203039 70 167 3.0 11.0 0.00 0.13 0.00 45 1002.4
20220517201539 71 360 3.0 23.0 0.00 0.13 0.00 47 1002.1
20220517200033 72 239 4.0 15.0 0.00 0.13 0.00 42 1001.8
20220517194530 72 248 5.0 19.0 0.00 0.47 0.00 45 1001.8
20220517193021 71 218 7.0 24.0 0.00 0.47 0.00 46 1001.6
20220517191523 71 360 4.0 14.0 0.00 0.47 0.00 47 1001.6
20220517190015 71 202 5.0 19.0 0.00 0.47 0.00 53 1001.4
20220517184512 70 360 4.0 16.0 0.00 0.60 0.00 53 1001.5
20220517183010 71 217 3.0 17.0 0.00 0.60 0.00 52 1001.5
20220517181504 69 259 10.0 22.0 0.00 0.60 0.00 54 1001.7
20220517180001 70 180 7.0 17.0 0.00 0.60 0.00 54 1001.8
20220517174559 67 182 3.0 16.0 0.00 0.60 0.00 57 1002.0
20220517173115 67 142 2.0 11.0 0.00 0.60 0.00 60 1002.1
20220517171603 64 225 4.0 14.0 0.00 0.60 0.00 67 1002.3
20220517170050 66 219 5.0 18.0 0.00 0.60 0.00 59 1002.6